Time,TemperatureF,DewpointF,PressureIn,WindDirection,WindDirectionDegrees,WindSpeedMPH,WindSpeedGustMPH,Humidity,HourlyPrecipIn,Conditions,Clouds,dailyrainin,SoftwareType,DateUTC
2013-08-21 00:02:00,48.6,44.8,29.92,WSW,240,1.0,2.0,87,0.00,,,0.00,meteohub,2013-08-21 07:02:00,
2013-08-21 00:07:00,48.7,45.0,29.92,SW,234,2.0,2.0,87,0.00,,,0.00,meteohub,2013-08-21 07:07:00,
2013-08-21 00:12:00,48.7,44.4,29.92,SW,234,0.0,2.0,85,0.00,,,0.00,meteohub,2013-08-21 07:12:00,
2013-08-21 00:17:00,48.0,43.7,29.92,SW,234,0.0,3.0,85,0.00,,,0.00,meteohub,2013-08-21 07:17:00,
2013-08-21 00:22:00,47.8,44.8,29.92,SW,234,0.0,3.0,89,0.00,,,0.00,meteohub,2013-08-21 07:22:00,
2013-08-21 00:27:00,48.0,44.4,29.92,SW,234,0.0,3.0,87,0.00,,,0.00,meteohub,2013-08-21 07:27:00,
2013-08-21 00:32:00,47.1,43.2,29.92,SW,234,0.0,2.0,86,0.00,,,0.00,meteohub,2013-08-21 07:32:00,
2013-08-21 00:37:00,46.9,43.9,29.92,SW,234,0.0,2.0,89,0.00,,,0.00,meteohub,2013-08-21 07:37:00,
2013-08-21 00:42:00,46.9,44.2,29.92,SW,234,1.0,2.0,90,0.00,,,0.00,meteohub,2013-08-21 07:42:00,
2013-08-21 00:52:00,46.8,43.3,29.92,SW,234,0.0,1.0,88,0.00,,,0.00,meteohub,2013-08-21 07:52:00,
2013-08-21 00:57:00,46.6,43.9,29.92,SW,234,0.0,3.0,90,0.00,,,0.00,meteohub,2013-08-21 07:57:00,
2013-08-21 01:02:00,46.2,42.6,29.93,SW,235,0.0,3.0,87,0.00,,,0.00,meteohub,2013-08-21 08:02:00,
2013-08-21 01:07:00,46.0,43.0,29.93,SW,235,0.0,3.0,89,0.00,,,0.00,meteohub,2013-08-21 08:07:00,
2013-08-21 01:12:00,45.9,43.2,29.93,SW,235,0.0,3.0,90,0.00,,,0.00,meteohub,2013-08-21 08:12:00,
2013-08-21 01:17:00,46.0,43.5,29.93,SW,235,0.0,3.0,91,0.00,,,0.00,meteohub,2013-08-21 08:17:00,
2013-08-21 01:22:00,46.2,43.5,29.93,SW,235,1.0,3.0,90,0.00,,,0.00,meteohub,2013-08-21 08:22:00,
2013-08-21 01:27:00,46.2,43.2,29.94,SW,235,0.0,3.0,89,0.00,,,0.00,meteohub,2013-08-21 08:27:00,
2013-08-21 01:32:00,45.9,42.4,29.94,SW,235,0.0,2.0,88,0.00,,,0.00,meteohub,2013-08-21 08:32:00,
2013-08-21 01:37:00,45.7,43.0,29.93,SW,235,0.0,2.0,90,0.00,,,0.00,meteohub,2013-08-21 08:37:00,
2013-08-21 01:42:00,45.7,43.2,29.94,SW,235,0.0,2.0,91,0.00,,,0.00,meteohub,2013-08-21 08:42:00,
2013-08-21 01:47:00,45.9,43.7,29.93,SW,235,0.0,0.0,92,0.00,,,0.00,meteohub,2013-08-21 08:47:00,
2013-08-21 01:52:00,46.0,43.5,29.94,SW,235,0.0,1.0,91,0.00,,,0.00,meteohub,2013-08-21 08:52:00,
2013-08-21 01:57:00,45.3,41.9,29.93,SW,235,0.0,2.0,88,0.00,,,0.00,meteohub,2013-08-21 08:57:00,
2013-08-21 02:07:00,44.1,41.0,29.93,SW,235,0.0,2.0,89,0.00,,,0.00,meteohub,2013-08-21 09:07:00,
2013-08-21 02:12:00,43.9,41.4,29.94,SW,235,0.0,1.0,91,0.00,,,0.00,meteohub,2013-08-21 09:12:00,
2013-08-21 02:17:00,44.1,42.1,29.94,SW,235,0.0,0.0,93,0.00,,,0.00,meteohub,2013-08-21 09:17:00,
2013-08-21 02:22:00,44.4,42.4,29.94,SW,235,0.0,1.0,93,0.00,,,0.00,meteohub,2013-08-21 09:22:00,
2013-08-21 02:27:00,44.2,42.1,29.94,SW,235,0.0,1.0,92,0.00,,,0.00,meteohub,2013-08-21 09:27:00,
2013-08-21 02:32:00,44.1,41.9,29.94,SW,235,0.0,0.0,92,0.00,,,0.00,meteohub,2013-08-21 09:32:00,
2013-08-21 02:37:00,43.7,41.5,29.94,SW,235,0.0,1.0,92,0.00,,,0.00,meteohub,2013-08-21 09:37:00,
2013-08-21 02:42:00,43.9,42.3,29.94,SW,235,0.0,1.0,94,0.00,,,0.00,meteohub,2013-08-21 09:42:00,
2013-08-21 02:47:00,44.1,42.4,29.94,SW,235,0.0,1.0,94,0.00,,,0.00,meteohub,2013-08-21 09:47:00,
2013-08-21 02:52:00,44.2,42.6,29.94,SW,235,0.0,0.0,94,0.00,,,0.00,meteohub,2013-08-21 09:52:00,
2013-08-21 02:57:00,44.2,42.6,29.94,SW,235,0.0,0.0,94,0.00,,,0.00,meteohub,2013-08-21 09:57:00,
2013-08-21 03:02:00,43.9,41.9,29.94,SW,235,0.0,2.0,93,0.00,,,0.00,meteohub,2013-08-21 10:02:00,
2013-08-21 03:07:00,43.9,42.3,29.94,SW,235,0.0,2.0,94,0.00,,,0.00,meteohub,2013-08-21 10:07:00,
2013-08-21 03:12:00,43.3,41.2,29.94,SW,235,0.0,2.0,92,0.00,,,0.00,meteohub,2013-08-21 10:12:00,
2013-08-21 03:17:00,42.4,40.3,29.95,SW,235,0.0,2.0,92,0.00,,,0.00,meteohub,2013-08-21 10:17:00,
2013-08-21 03:22:00,42.3,40.5,29.95,SW,235,0.0,2.0,93,0.00,,,0.00,meteohub,2013-08-21 10:22:00,
2013-08-21 03:27:00,42.4,40.8,29.95,SW,235,0.0,2.0,94,0.00,,,0.00,meteohub,2013-08-21 10:27:00,
2013-08-21 03:32:00,42.6,41.4,29.95,SW,235,2.0,2.0,95,0.00,,,0.00,meteohub,2013-08-21 10:32:00,
2013-08-21 03:37:00,43.2,42.1,29.95,SW,235,0.0,2.0,96,0.00,,,0.00,meteohub,2013-08-21 10:37:00,
2013-08-21 03:42:00,43.5,42.3,29.95,SW,235,0.0,2.0,95,0.00,,,0.00,meteohub,2013-08-21 10:42:00,
2013-08-21 03:47:00,43.0,41.2,29.96,SW,235,0.0,2.0,93,0.00,,,0.00,meteohub,2013-08-21 10:47:00,
2013-08-21 03:52:00,42.4,40.6,29.96,SW,235,0.0,2.0,93,0.00,,,0.00,meteohub,2013-08-21 10:52:00,
2013-08-21 03:57:00,42.1,40.3,29.96,SW,235,0.0,2.0,93,0.00,,,0.00,meteohub,2013-08-21 10:57:00,
2013-08-21 04:02:00,41.7,39.9,29.96,SW,235,0.0,1.0,93,0.00,,,0.00,meteohub,2013-08-21 11:02:00,
2013-08-21 04:07:00,41.7,40.1,29.96,SW,235,0.0,0.0,94,0.00,,,0.00,meteohub,2013-08-21 11:07:00,
2013-08-21 04:12:00,42.1,40.8,29.96,SW,235,0.0,0.0,95,0.00,,,0.00,meteohub,2013-08-21 11:12:00,
2013-08-21 04:17:00,42.4,41.4,29.96,SW,235,0.0,0.0,96,0.00,,,0.00,meteohub,2013-08-21 11:17:00,
2013-08-21 04:22:00,42.3,40.6,29.96,SW,235,1.0,1.0,94,0.00,,,0.00,meteohub,2013-08-21 11:22:00,
2013-08-21 04:27:00,41.4,39.6,29.97,SW,235,0.0,2.0,93,0.00,,,0.00,meteohub,2013-08-21 11:27:00,
2013-08-21 04:32:00,41.4,39.7,29.97,SW,235,0.0,2.0,94,0.00,,,0.00,meteohub,2013-08-21 11:32:00,
2013-08-21 04:37:00,41.4,40.1,29.97,SW,235,0.0,2.0,95,0.00,,,0.00,meteohub,2013-08-21 11:37:00,
2013-08-21 04:42:00,41.5,40.3,29.97,SW,235,0.0,0.0,95,0.00,,,0.00,meteohub,2013-08-21 11:42:00,
2013-08-21 04:47:00,41.5,40.3,29.97,SW,235,0.0,0.0,95,0.00,,,0.00,meteohub,2013-08-21 11:47:00,
2013-08-21 04:52:00,41.2,39.6,29.97,SW,235,2.0,2.0,94,0.00,,,0.00,meteohub,2013-08-21 11:52:00,
2013-08-21 04:57:00,40.5,38.8,29.98,SW,235,0.0,4.0,94,0.00,,,0.00,meteohub,2013-08-21 11:57:00,
2013-08-21 05:02:00,40.3,39.0,29.98,SW,235,0.0,4.0,95,0.00,,,0.00,meteohub,2013-08-21 12:02:00,
2013-08-21 05:07:00,40.1,38.8,29.98,SW,235,2.0,4.0,95,0.00,,,0.00,meteohub,2013-08-21 12:07:00,
2013-08-21 05:12:00,39.7,38.1,29.98,SW,235,0.0,3.0,94,0.00,,,0.00,meteohub,2013-08-21 12:12:00,
2013-08-21 05:17:00,39.9,38.7,29.98,SW,235,0.0,2.0,95,0.00,,,0.00,meteohub,2013-08-21 12:17:00,
2013-08-21 05:22:00,40.3,39.2,29.99,SW,235,3.0,3.0,96,0.00,,,0.00,meteohub,2013-08-21 12:22:00,
2013-08-21 05:27:00,40.3,39.2,29.99,SW,235,0.0,3.0,96,0.00,,,0.00,meteohub,2013-08-21 12:27:00,
2013-08-21 05:32:00,40.5,39.4,29.99,SW,235,0.0,3.0,96,0.00,,,0.00,meteohub,2013-08-21 12:32:00,
2013-08-21 05:37:00,40.3,39.0,29.99,SW,235,0.0,3.0,95,0.00,,,0.00,meteohub,2013-08-21 12:37:00,
2013-08-21 05:42:00,39.9,38.7,30.00,SW,235,0.0,1.0,95,0.00,,,0.00,meteohub,2013-08-21 12:42:00,
2013-08-21 05:47:00,39.7,38.5,30.00,SW,235,0.0,2.0,95,0.00,,,0.00,meteohub,2013-08-21 12:47:00,
2013-08-21 05:52:00,39.9,38.8,30.00,SW,235,0.0,2.0,96,0.00,,,0.00,meteohub,2013-08-21 12:52:00,
2013-08-21 05:57:00,40.3,39.2,30.01,SW,235,0.0,1.0,96,0.00,,,0.00,meteohub,2013-08-21 12:57:00,
2013-08-21 06:02:00,40.8,40.1,30.01,SW,235,0.0,1.0,97,0.00,,,0.00,meteohub,2013-08-21 13:02:00,
2013-08-21 06:07:00,41.5,40.8,30.01,SW,235,0.0,1.0,97,0.00,,,0.00,meteohub,2013-08-21 13:07:00,
2013-08-21 06:12:00,41.4,40.3,30.01,SW,236,1.0,1.0,96,0.00,,,0.00,meteohub,2013-08-21 13:12:00,
2013-08-21 06:17:00,40.5,38.8,30.01,SW,236,2.0,3.0,94,0.00,,,0.00,meteohub,2013-08-21 13:17:00,
2013-08-21 06:22:00,40.1,38.8,30.01,SW,236,0.0,3.0,95,0.00,,,0.00,meteohub,2013-08-21 13:22:00,
2013-08-21 06:27:00,39.9,38.7,30.00,SW,236,0.0,3.0,95,0.00,,,0.00,meteohub,2013-08-21 13:27:00,
2013-08-21 06:32:00,40.1,39.0,30.00,SW,236,0.0,3.0,96,0.00,,,0.00,meteohub,2013-08-21 13:32:00,
2013-08-21 06:37:00,40.5,39.4,30.00,SW,236,0.0,1.0,96,0.00,,,0.00,meteohub,2013-08-21 13:37:00,
2013-08-21 06:47:00,42.1,41.4,30.01,SW,236,0.0,2.0,97,0.00,,,0.00,meteohub,2013-08-21 13:47:00,
2013-08-21 06:52:00,43.0,42.3,30.01,SW,236,0.0,2.0,97,0.00,,,0.00,meteohub,2013-08-21 13:52:00,
2013-08-21 06:57:00,44.1,43.3,30.01,SW,236,0.0,2.0,97,0.00,,,0.00,meteohub,2013-08-21 13:57:00,
2013-08-21 07:02:00,45.0,43.9,30.01,SW,236,0.0,1.0,96,0.00,,,0.00,meteohub,2013-08-21 14:02:00,
2013-08-21 07:07:00,46.0,44.4,30.01,SW,236,0.0,1.0,94,0.00,,,0.00,meteohub,2013-08-21 14:07:00,
2013-08-21 07:12:00,47.1,45.0,30.01,SW,236,0.0,1.0,92,0.00,,,0.00,meteohub,2013-08-21 14:12:00,
2013-08-21 07:17:00,48.4,45.0,30.00,SW,236,0.0,1.0,88,0.00,,,0.00,meteohub,2013-08-21 14:17:00,
2013-08-21 07:22:00,49.6,45.0,30.00,SW,236,0.0,0.0,84,0.00,,,0.00,meteohub,2013-08-21 14:22:00,
2013-08-21 07:27:00,50.7,44.8,30.00,SW,236,0.0,0.0,80,0.00,,,0.00,meteohub,2013-08-21 14:27:00,
2013-08-21 07:37:00,52.7,45.0,30.00,SW,236,0.0,1.0,75,0.00,,,0.00,meteohub,2013-08-21 14:37:00,
2013-08-21 07:47:00,53.2,44.8,29.99,SW,216,0.0,2.0,73,0.00,,,0.00,meteohub,2013-08-21 14:47:00,
2013-08-21 07:52:00,53.8,45.7,29.99,SSW,212,0.0,2.0,74,0.00,,,0.00,meteohub,2013-08-21 14:52:00,
2013-08-21 07:57:00,54.3,45.9,29.99,SSW,198,0.0,2.0,73,0.00,,,0.00,meteohub,2013-08-21 14:57:00,
2013-08-21 08:02:00,54.7,45.1,29.99,ESE,103,3.0,3.0,70,0.00,,,0.00,meteohub,2013-08-21 15:02:00,
2013-08-21 08:07:00,54.5,45.0,29.99,ENE,75,0.0,3.0,70,0.00,,,0.00,meteohub,2013-08-21 15:07:00,
2013-08-21 08:12:00,54.9,46.4,29.99,ENE,75,0.0,5.0,73,0.00,,,0.00,meteohub,2013-08-21 15:12:00,
2013-08-21 08:17:00,55.4,45.0,29.99,ENE,75,0.0,5.0,68,0.00,,,0.00,meteohub,2013-08-21 15:17:00,
2013-08-21 08:22:00,56.1,46.8,29.99,ENE,75,0.0,2.0,71,0.00,,,0.00,meteohub,2013-08-21 15:22:00,
2013-08-21 08:27:00,56.7,45.9,29.99,ENE,75,1.0,2.0,67,0.00,,,0.00,meteohub,2013-08-21 15:27:00,
2013-08-21 08:32:00,57.2,45.1,29.99,ENE,75,0.0,2.0,64,0.00,,,0.00,meteohub,2013-08-21 15:32:00,
2013-08-21 08:37:00,57.6,45.9,29.99,ENE,74,0.0,1.0,65,0.00,,,0.00,meteohub,2013-08-21 15:37:00,
2013-08-21 08:42:00,58.3,46.2,29.99,ENE,74,0.0,1.0,64,0.00,,,0.00,meteohub,2013-08-21 15:42:00,
2013-08-21 08:47:00,59.0,46.4,29.99,ENE,73,0.0,1.0,63,0.00,,,0.00,meteohub,2013-08-21 15:47:00,
2013-08-21 08:52:00,59.7,46.2,29.99,ENE,73,3.0,3.0,61,0.00,,,0.00,meteohub,2013-08-21 15:52:00,
2013-08-21 08:57:00,60.4,47.3,29.99,ENE,73,1.0,4.0,62,0.00,,,0.00,meteohub,2013-08-21 15:57:00,
2013-08-21 09:02:00,60.6,46.2,29.99,ENE,73,1.0,4.0,59,0.00,,,0.00,meteohub,2013-08-21 16:02:00,
2013-08-21 09:07:00,60.6,46.2,29.99,ENE,67,2.0,4.0,59,0.00,,,0.00,meteohub,2013-08-21 16:07:00,
2013-08-21 09:12:00,60.4,44.6,29.99,ENE,67,2.0,5.0,56,0.00,,,0.00,meteohub,2013-08-21 16:12:00,
2013-08-21 09:17:00,61.0,46.0,29.98,ENE,67,2.0,5.0,58,0.00,,,0.00,meteohub,2013-08-21 16:17:00,
2013-08-21 09:22:00,61.2,47.7,29.98,ENE,64,1.0,3.0,61,0.00,,,0.00,meteohub,2013-08-21 16:22:00,
2013-08-21 09:27:00,61.9,46.9,29.98,ENE,63,3.0,4.0,58,0.00,,,0.00,meteohub,2013-08-21 16:27:00,
2013-08-21 09:32:00,62.8,46.4,29.98,ENE,63,2.0,4.0,55,0.00,,,0.00,meteohub,2013-08-21 16:32:00,
2013-08-21 09:37:00,63.1,45.7,29.98,ENE,62,2.0,5.0,53,0.00,,,0.00,meteohub,2013-08-21 16:37:00,
2013-08-21 09:42:00,63.5,46.0,29.98,NE,47,2.0,5.0,53,0.00,,,0.00,meteohub,2013-08-21 16:42:00,
2013-08-21 09:47:00,64.2,45.7,29.98,NE,47,1.0,4.0,51,0.00,,,0.00,meteohub,2013-08-21 16:47:00,
2013-08-21 09:52:00,64.9,46.9,29.97,NE,47,0.0,4.0,52,0.00,,,0.00,meteohub,2013-08-21 16:52:00,
2013-08-21 09:57:00,65.7,45.5,29.97,NE,47,0.0,4.0,48,0.00,,,0.00,meteohub,2013-08-21 16:57:00,
2013-08-21 10:02:00,66.6,46.2,29.97,NE,47,0.0,3.0,48,0.00,,,0.00,meteohub,2013-08-21 17:02:00,
2013-08-21 10:07:00,67.5,46.0,29.97,NE,47,0.0,3.0,46,0.00,,,0.00,meteohub,2013-08-21 17:07:00,
2013-08-21 10:12:00,68.4,46.8,29.96,NE,47,0.0,2.0,46,0.00,,,0.00,meteohub,2013-08-21 17:12:00,
2013-08-21 10:22:00,69.4,47.1,29.96,NE,47,2.0,3.0,45,0.00,,,0.00,meteohub,2013-08-21 17:22:00,
2013-08-21 10:27:00,69.6,47.8,29.96,East,80,1.0,3.0,46,0.00,,,0.00,meteohub,2013-08-21 17:27:00,
2013-08-21 10:32:00,70.0,48.7,29.96,ENE,73,1.0,3.0,47,0.00,,,0.00,meteohub,2013-08-21 17:32:00,
2013-08-21 10:37:00,70.3,46.8,29.95,NE,55,2.0,4.0,43,0.00,,,0.00,meteohub,2013-08-21 17:37:00,
2013-08-21 10:42:00,70.5,46.9,29.95,NE,48,2.0,5.0,43,0.00,,,0.00,meteohub,2013-08-21 17:42:00,
2013-08-21 10:47:00,71.1,48.6,29.94,NNE,22,3.0,5.0,45,0.00,,,0.00,meteohub,2013-08-21 17:47:00,
2013-08-21 10:52:00,71.2,47.7,29.94,NNE,22,5.0,5.0,43,0.00,,,0.00,meteohub,2013-08-21 17:52:00,
2013-08-21 10:57:00,71.4,45.9,29.94,North,355,6.0,6.0,40,0.00,,,0.00,meteohub,2013-08-21 17:57:00,
2013-08-21 11:07:00,72.3,49.1,29.94,North,5,3.0,7.0,44,0.00,,,0.00,meteohub,2013-08-21 18:07:00,
2013-08-21 11:12:00,72.5,44.1,29.93,NE,43,2.0,7.0,36,0.00,,,0.00,meteohub,2013-08-21 18:12:00,
2013-08-21 11:17:00,72.7,45.0,29.93,NE,45,2.0,6.0,37,0.00,,,0.00,meteohub,2013-08-21 18:17:00,
2013-08-21 11:22:00,73.0,49.8,29.93,NE,42,2.0,5.0,44,0.00,,,0.00,meteohub,2013-08-21 18:22:00,
2013-08-21 11:27:00,73.4,44.8,29.92,NE,55,0.0,6.0,36,0.00,,,0.00,meteohub,2013-08-21 18:27:00,
2013-08-21 11:32:00,73.8,46.6,29.92,NW,313,2.0,6.0,38,0.00,,,0.00,meteohub,2013-08-21 18:32:00,
2013-08-21 11:37:00,74.3,45.7,29.91,NW,317,2.0,7.0,36,0.00,,,0.00,meteohub,2013-08-21 18:37:00,
2013-08-21 11:42:00,74.7,45.1,29.91,NE,55,5.0,7.0,35,0.00,,,0.00,meteohub,2013-08-21 18:42:00,
2013-08-21 11:47:00,74.7,45.1,29.91,East,99,3.0,7.0,35,0.00,,,0.00,meteohub,2013-08-21 18:47:00,
2013-08-21 11:52:00,74.8,47.5,29.91,NNE,30,6.0,11.0,38,0.00,,,0.00,meteohub,2013-08-21 18:52:00,
2013-08-21 11:57:00,74.7,46.6,29.91,NE,42,5.0,11.0,37,0.00,,,0.00,meteohub,2013-08-21 18:57:00,
2013-08-21 12:07:00,75.0,44.8,29.90,NE,45,1.0,9.0,34,0.00,,,0.00,meteohub,2013-08-21 19:07:00,
2013-08-21 12:12:00,75.4,46.6,29.90,NW,306,5.0,9.0,36,0.00,,,0.00,meteohub,2013-08-21 19:12:00,
2013-08-21 12:17:00,75.4,43.5,29.90,WNW,298,5.0,7.0,32,0.00,,,0.00,meteohub,2013-08-21 19:17:00,
2013-08-21 12:22:00,75.6,46.8,29.90,NW,323,4.0,7.0,36,0.00,,,0.00,meteohub,2013-08-21 19:22:00,
2013-08-21 12:27:00,75.7,44.6,29.90,NE,38,3.0,7.0,33,0.00,,,0.00,meteohub,2013-08-21 19:27:00,
2013-08-21 12:32:00,75.7,45.3,29.90,NNW,341,4.0,8.0,34,0.00,,,0.00,meteohub,2013-08-21 19:32:00,
2013-08-21 12:37:00,75.6,44.4,29.90,NE,44,4.0,8.0,33,0.00,,,0.00,meteohub,2013-08-21 19:37:00,
2013-08-21 12:42:00,75.4,40.1,29.89,NE,47,7.0,8.0,28,0.00,,,0.00,meteohub,2013-08-21 19:42:00,
2013-08-21 12:47:00,75.4,41.0,29.89,NNE,24,1.0,8.0,29,0.00,,,0.00,meteohub,2013-08-21 19:47:00,
2013-08-21 12:52:00,75.4,43.5,29.89,NE,36,1.0,8.0,32,0.00,,,0.00,meteohub,2013-08-21 19:52:00,
2013-08-21 12:57:00,75.4,43.5,29.88,NE,36,0.0,7.0,32,0.00,,,0.00,meteohub,2013-08-21 19:57:00,
2013-08-21 13:02:00,75.4,40.1,29.88,NE,36,0.0,4.0,28,0.00,,,0.00,meteohub,2013-08-21 20:02:00,
2013-08-21 13:07:00,75.0,47.7,29.88,NE,36,1.0,4.0,38,0.00,,,0.00,meteohub,2013-08-21 20:07:00,
2013-08-21 13:12:00,74.3,49.1,29.88,NE,36,0.0,2.0,41,0.00,,,0.00,meteohub,2013-08-21 20:12:00,
2013-08-21 13:17:00,73.8,45.1,29.88,NE,36,1.0,2.0,36,0.00,,,0.00,meteohub,2013-08-21 20:17:00,
2013-08-21 13:22:00,73.6,46.4,29.89,NE,36,0.0,3.0,38,0.00,,,0.00,meteohub,2013-08-21 20:22:00,
2013-08-21 13:27:00,73.6,45.7,29.88,NE,36,0.0,3.0,37,0.00,,,0.00,meteohub,2013-08-21 20:27:00,
2013-08-21 13:32:00,73.4,48.2,29.88,WNW,298,2.0,3.0,41,0.00,,,0.00,meteohub,2013-08-21 20:32:00,
2013-08-21 13:37:00,72.9,52.0,29.88,WNW,298,0.0,3.0,48,0.00,,,0.00,meteohub,2013-08-21 20:37:00,
2013-08-21 13:42:00,72.1,50.2,29.89,NW,304,6.0,6.0,46,0.00,,,0.00,meteohub,2013-08-21 20:42:00,
2013-08-21 13:47:00,71.2,48.2,29.90,WNW,296,1.0,9.0,44,0.00,,,0.00,meteohub,2013-08-21 20:47:00,
2013-08-21 13:52:00,70.7,47.7,29.90,West,278,2.0,9.0,44,0.00,,,0.00,meteohub,2013-08-21 20:52:00,
2013-08-21 13:57:00,70.2,47.3,29.90,West,271,7.0,9.0,44,0.00,,,0.00,meteohub,2013-08-21 20:57:00,
2013-08-21 14:02:00,69.8,47.5,29.90,WSW,242,1.0,9.0,45,0.00,,,0.00,meteohub,2013-08-21 21:02:00,
2013-08-21 14:07:00,69.6,48.6,29.90,WSW,251,3.0,9.0,47,0.00,,,0.00,meteohub,2013-08-21 21:07:00,
2013-08-21 14:12:00,69.3,47.7,29.90,WSW,240,3.0,9.0,46,0.00,,,0.00,meteohub,2013-08-21 21:12:00,
2013-08-21 14:17:00,68.9,46.8,29.91,WSW,240,3.0,8.0,45,0.00,,,0.00,meteohub,2013-08-21 21:17:00,
2013-08-21 14:22:00,69.1,46.8,29.91,SW,227,3.0,8.0,45,0.00,,,0.00,meteohub,2013-08-21 21:22:00,
2013-08-21 14:27:00,69.1,46.2,29.91,SW,235,3.0,8.0,44,0.00,,,0.00,meteohub,2013-08-21 21:27:00,
2013-08-21 14:32:00,69.1,45.7,29.91,SW,228,0.0,6.0,43,0.00,,,0.00,meteohub,2013-08-21 21:32:00,
2013-08-21 14:42:00,69.1,43.7,29.93,ENE,65,4.0,11.0,40,0.00,,,0.00,meteohub,2013-08-21 21:42:00,
2013-08-21 14:47:00,68.7,42.8,29.93,SE,124,7.0,11.0,39,0.00,,,0.00,meteohub,2013-08-21 21:47:00,
2013-08-21 14:52:00,68.2,43.0,29.93,ESE,111,10.0,11.0,40,0.00,,,0.00,meteohub,2013-08-21 21:52:00,
2013-08-21 14:57:00,67.8,42.6,29.93,East,89,7.0,11.0,40,0.00,,,0.00,meteohub,2013-08-21 21:57:00,
2013-08-21 15:02:00,68.2,44.8,29.93,ESE,121,4.0,11.0,43,0.00,,,0.00,meteohub,2013-08-21 22:02:00,
2013-08-21 15:07:00,67.6,45.0,29.93,ENE,74,9.0,11.0,44,0.00,,,0.00,meteohub,2013-08-21 22:07:00,
2013-08-21 15:12:00,66.6,44.1,29.93,ENE,69,7.0,14.0,44,0.00,,,0.00,meteohub,2013-08-21 22:12:00,
2013-08-21 15:17:00,66.6,45.1,29.93,ENE,57,2.0,14.0,46,0.00,,,0.00,meteohub,2013-08-21 22:17:00,
2013-08-21 15:22:00,66.4,44.4,29.94,NE,48,6.0,14.0,45,0.00,,,0.00,meteohub,2013-08-21 22:22:00,
2013-08-21 15:32:00,66.7,44.8,29.94,ENE,59,14.0,14.0,45,0.00,,,0.00,meteohub,2013-08-21 22:32:00,
2013-08-21 15:37:00,66.4,45.5,29.95,NE,41,8.0,15.0,47,0.00,,,0.00,meteohub,2013-08-21 22:37:00,
2013-08-21 15:42:00,65.8,46.8,29.95,NE,55,11.0,15.0,50,0.00,,,0.00,meteohub,2013-08-21 22:42:00,
2013-08-21 15:47:00,65.5,45.3,29.95,NE,49,6.0,15.0,48,0.00,,,0.00,meteohub,2013-08-21 22:47:00,
2013-08-21 15:52:00,65.1,47.1,29.95,NE,46,1.0,14.0,52,0.00,,,0.00,meteohub,2013-08-21 22:52:00,
2013-08-21 15:57:00,64.9,46.4,29.95,NNE,30,6.0,11.0,51,0.00,,,0.00,meteohub,2013-08-21 22:57:00,
2013-08-21 16:02:00,64.9,46.9,29.95,NE,46,2.0,11.0,52,0.00,,,0.00,meteohub,2013-08-21 23:02:00,
2013-08-21 16:07:00,64.9,47.5,29.95,NE,42,0.0,8.0,53,0.00,,,0.00,meteohub,2013-08-21 23:07:00,
2013-08-21 16:12:00,65.1,50.0,29.95,NE,42,1.0,7.0,58,0.00,,,0.00,meteohub,2013-08-21 23:12:00,
2013-08-21 16:17:00,65.5,49.8,29.95,NE,43,0.0,4.0,57,0.00,,,0.00,meteohub,2013-08-21 23:17:00,
2013-08-21 16:27:00,66.0,46.8,29.95,NE,42,0.0,2.0,50,0.00,,,0.00,meteohub,2013-08-21 23:27:00,
2013-08-21 16:32:00,66.4,48.2,29.95,NE,42,0.0,2.0,52,0.00,,,0.00,meteohub,2013-08-21 23:32:00,
2013-08-21 16:37:00,66.7,45.9,29.95,NE,42,0.0,2.0,47,0.00,,,0.00,meteohub,2013-08-21 23:37:00,
2013-08-21 16:42:00,66.9,49.8,29.94,NE,42,0.0,2.0,54,0.00,,,0.00,meteohub,2013-08-21 23:42:00,
2013-08-21 16:47:00,66.9,47.7,29.94,NE,37,1.0,4.0,50,0.00,,,0.00,meteohub,2013-08-21 23:47:00,
2013-08-21 16:52:00,66.9,50.2,29.95,West,273,2.0,4.0,55,0.00,,,0.00,meteohub,2013-08-21 23:52:00,
2013-08-21 16:57:00,66.7,52.3,29.95,West,273,1.0,4.0,60,0.00,,,0.00,meteohub,2013-08-21 23:57:00,
2013-08-21 17:02:00,66.4,53.4,29.95,West,273,0.0,4.0,63,0.00,,,0.00,meteohub,2013-08-22 00:02:00,
2013-08-21 17:07:00,66.4,49.6,29.95,West,273,0.0,3.0,55,0.00,,,0.00,meteohub,2013-08-22 00:07:00,
2013-08-21 17:12:00,66.6,48.9,29.95,West,273,0.0,2.0,53,0.00,,,0.00,meteohub,2013-08-22 00:12:00,
2013-08-21 17:17:00,66.9,49.3,29.95,West,273,0.0,2.0,53,0.00,,,0.00,meteohub,2013-08-22 00:17:00,
2013-08-21 17:22:00,67.1,51.8,29.95,West,273,0.0,2.0,58,0.00,,,0.00,meteohub,2013-08-22 00:22:00,
2013-08-21 17:32:00,67.8,47.5,29.95,West,259,1.0,3.0,48,0.00,,,0.00,meteohub,2013-08-22 00:32:00,
2013-08-21 17:37:00,68.2,48.9,29.95,West,259,0.0,3.0,50,0.00,,,0.00,meteohub,2013-08-22 00:37:00,
2013-08-21 17:42:00,68.0,45.9,29.95,West,259,0.0,3.0,45,0.00,,,0.00,meteohub,2013-08-22 00:42:00,
2013-08-21 17:47:00,67.8,45.1,29.95,SW,234,0.0,3.0,44,0.00,,,0.00,meteohub,2013-08-22 00:47:00,
2013-08-21 17:52:00,67.6,44.4,29.96,ESE,111,2.0,5.0,43,0.00,,,0.00,meteohub,2013-08-22 00:52:00,
2013-08-21 17:57:00,67.3,44.1,29.96,South,182,1.0,5.0,43,0.00,,,0.00,meteohub,2013-08-22 00:57:00,
2013-08-21 18:02:00,66.9,45.0,29.96,SSE,153,0.0,5.0,45,0.00,,,0.00,meteohub,2013-08-22 01:02:00,
2013-08-21 18:07:00,66.7,44.8,29.96,SSE,153,0.0,5.0,45,0.00,,,0.00,meteohub,2013-08-22 01:07:00,
2013-08-21 18:12:00,66.6,45.1,29.97,SSE,153,0.0,5.0,46,0.00,,,0.00,meteohub,2013-08-22 01:12:00,
2013-08-21 18:17:00,66.4,45.0,29.97,SSE,153,1.0,4.0,46,0.00,,,0.00,meteohub,2013-08-22 01:17:00,
2013-08-21 18:22:00,66.0,45.1,29.98,SSE,153,0.0,3.0,47,0.00,,,0.00,meteohub,2013-08-22 01:22:00,
2013-08-21 18:27:00,65.8,44.4,29.98,SSE,165,0.0,3.0,46,0.00,,,0.00,meteohub,2013-08-22 01:27:00,
2013-08-21 18:32:00,65.7,46.6,29.98,SSE,163,0.0,3.0,50,0.00,,,0.00,meteohub,2013-08-22 01:32:00,
2013-08-21 18:37:00,65.1,47.1,29.98,SSE,163,0.0,3.0,52,0.00,,,0.00,meteohub,2013-08-22 01:37:00,
2013-08-21 18:42:00,64.4,46.4,29.98,SSE,163,0.0,1.0,52,0.00,,,0.00,meteohub,2013-08-22 01:42:00,
2013-08-21 18:52:00,63.7,46.2,29.97,SW,234,1.0,4.0,53,0.00,,,0.00,meteohub,2013-08-22 01:52:00,
2013-08-21 18:57:00,62.8,46.9,29.97,SW,236,0.0,7.0,56,0.00,,,0.00,meteohub,2013-08-22 01:57:00,
2013-08-21 19:02:00,62.1,46.2,29.97,SW,227,1.0,7.0,56,0.00,,,0.00,meteohub,2013-08-22 02:02:00,
2013-08-21 19:07:00,62.1,46.2,29.97,SSW,205,4.0,7.0,56,0.00,,,0.00,meteohub,2013-08-22 02:07:00,
2013-08-21 19:12:00,62.2,45.9,29.97,SSW,204,0.0,5.0,55,0.00,,,0.00,meteohub,2013-08-22 02:12:00,
2013-08-21 19:17:00,62.4,46.6,29.98,SSW,204,0.0,5.0,56,0.00,,,0.00,meteohub,2013-08-22 02:17:00,
2013-08-21 19:22:00,62.1,46.6,29.97,SSW,204,0.0,5.0,57,0.00,,,0.00,meteohub,2013-08-22 02:22:00,
2013-08-21 19:27:00,61.7,45.3,29.97,SSW,203,0.0,3.0,55,0.00,,,0.00,meteohub,2013-08-22 02:27:00,
2013-08-21 19:32:00,62.1,46.2,29.97,SSW,203,0.0,4.0,56,0.00,,,0.00,meteohub,2013-08-22 02:32:00,
2013-08-21 19:37:00,62.1,46.6,29.97,SSW,203,0.0,4.0,57,0.00,,,0.00,meteohub,2013-08-22 02:37:00,
2013-08-21 19:42:00,61.7,47.3,29.97,SSW,203,1.0,4.0,59,0.00,,,0.00,meteohub,2013-08-22 02:42:00,
2013-08-21 19:47:00,61.0,47.8,29.97,SSW,207,0.0,3.0,62,0.00,,,0.00,meteohub,2013-08-22 02:47:00,
2013-08-21 19:52:00,60.4,46.9,29.98,SSE,166,3.0,5.0,61,0.00,,,0.00,meteohub,2013-08-22 02:52:00,
2013-08-21 19:57:00,60.6,47.1,29.98,SSE,166,0.0,5.0,61,0.00,,,0.00,meteohub,2013-08-22 02:57:00,
2013-08-21 20:02:00,60.8,46.8,29.99,SSE,166,0.0,5.0,60,0.00,,,0.00,meteohub,2013-08-22 03:02:00,
2013-08-21 20:07:00,60.6,47.5,29.99,SSE,166,1.0,4.0,62,0.00,,,0.00,meteohub,2013-08-22 03:07:00,
2013-08-21 20:12:00,60.1,47.5,29.99,SSE,166,1.0,3.0,63,0.00,,,0.00,meteohub,2013-08-22 03:12:00,
2013-08-21 20:17:00,59.4,47.1,29.99,SSE,166,0.0,3.0,64,0.00,,,0.00,meteohub,2013-08-22 03:17:00,
2013-08-21 20:22:00,58.8,47.1,29.99,SSE,166,2.0,3.0,65,0.00,,,0.00,meteohub,2013-08-22 03:22:00,
2013-08-21 20:27:00,58.5,47.1,29.99,SSE,166,0.0,3.0,66,0.00,,,0.00,meteohub,2013-08-22 03:27:00,
2013-08-21 20:32:00,58.3,47.3,29.99,SSE,166,0.0,3.0,67,0.00,,,0.00,meteohub,2013-08-22 03:32:00,
2013-08-21 20:37:00,58.1,47.1,29.99,SSW,204,1.0,3.0,67,0.00,,,0.00,meteohub,2013-08-22 03:37:00,
2013-08-21 20:47:00,57.4,46.9,29.99,SSW,210,0.0,4.0,68,0.00,,,0.00,meteohub,2013-08-22 03:47:00,
2013-08-21 20:52:00,57.4,46.6,29.99,SSW,202,0.0,4.0,67,0.00,,,0.00,meteohub,2013-08-22 03:52:00,
2013-08-21 21:02:00,59.5,46.6,29.99,SSE,156,3.0,7.0,62,0.00,,,0.00,meteohub,2013-08-22 04:02:00,
2013-08-21 21:07:00,60.3,46.8,29.99,SSE,158,0.0,7.0,61,0.00,,,0.00,meteohub,2013-08-22 04:07:00,
2013-08-21 21:12:00,60.4,46.4,29.99,SSE,168,3.0,7.0,60,0.00,,,0.00,meteohub,2013-08-22 04:12:00,
2013-08-21 21:17:00,60.6,47.1,29.99,SW,234,4.0,6.0,61,0.00,,,0.00,meteohub,2013-08-22 04:17:00,
2013-08-21 21:22:00,59.5,46.9,29.99,WSW,254,0.0,6.0,63,0.00,,,0.00,meteohub,2013-08-22 04:22:00,
2013-08-21 21:27:00,59.2,46.9,29.99,SSW,196,0.0,6.0,64,0.00,,,0.00,meteohub,2013-08-22 04:27:00,
2013-08-21 21:32:00,59.2,46.9,29.99,SW,236,3.0,5.0,64,0.00,,,0.00,meteohub,2013-08-22 04:32:00,
2013-08-21 21:37:00,58.6,47.3,29.99,WSW,246,2.0,6.0,66,0.00,,,0.00,meteohub,2013-08-22 04:37:00,
2013-08-21 21:42:00,57.9,46.6,29.99,SSW,192,1.0,6.0,66,0.00,,,0.00,meteohub,2013-08-22 04:42:00,
2013-08-21 21:47:00,58.3,47.3,29.99,SW,218,1.0,6.0,67,0.00,,,0.00,meteohub,2013-08-22 04:47:00,
2013-08-21 21:52:00,58.1,47.1,29.99,SW,229,1.0,5.0,67,0.00,,,0.00,meteohub,2013-08-22 04:52:00,
2013-08-21 21:57:00,57.9,46.9,29.99,SW,229,1.0,5.0,67,0.00,,,0.00,meteohub,2013-08-22 04:57:00,
2013-08-21 22:02:00,57.4,46.9,30.00,SW,229,0.0,3.0,68,0.00,,,0.00,meteohub,2013-08-22 05:02:00,
2013-08-21 22:07:00,57.4,46.9,29.99,SSW,194,0.0,3.0,68,0.00,,,0.00,meteohub,2013-08-22 05:07:00,
2013-08-21 22:12:00,57.6,46.8,30.00,SSW,205,3.0,3.0,67,0.00,,,0.00,meteohub,2013-08-22 05:12:00,
2013-08-21 22:17:00,57.0,46.6,30.00,WSW,250,0.0,4.0,68,0.00,,,0.00,meteohub,2013-08-22 05:17:00,
2013-08-21 22:22:00,56.8,46.8,30.00,WSW,250,0.0,4.0,69,0.00,,,0.00,meteohub,2013-08-22 05:22:00,
2013-08-21 22:27:00,56.5,46.8,30.00,WSW,250,0.0,4.0,70,0.00,,,0.00,meteohub,2013-08-22 05:27:00,
2013-08-21 22:32:00,56.1,46.4,30.00,WSW,245,0.0,1.0,70,0.00,,,0.00,meteohub,2013-08-22 05:32:00,
2013-08-21 22:37:00,55.2,46.4,30.00,WSW,245,0.0,3.0,72,0.00,,,0.00,meteohub,2013-08-22 05:37:00,
2013-08-21 22:42:00,54.9,46.4,30.00,SSW,202,2.0,3.0,73,0.00,,,0.00,meteohub,2013-08-22 05:42:00,
2013-08-21 22:47:00,55.2,46.4,30.00,SW,219,1.0,4.0,72,0.00,,,0.00,meteohub,2013-08-22 05:47:00,
2013-08-21 22:52:00,55.6,45.5,30.00,SSW,205,0.0,4.0,69,0.00,,,0.00,meteohub,2013-08-22 05:52:00,
2013-08-21 23:02:00,56.7,45.5,30.00,South,191,5.0,5.0,66,0.00,,,0.00,meteohub,2013-08-22 06:02:00,
2013-08-21 23:07:00,57.0,45.3,30.00,WSW,242,0.0,7.0,65,0.00,,,0.00,meteohub,2013-08-22 06:07:00,
2013-08-21 23:12:00,57.4,45.3,29.99,SSW,192,4.0,7.0,64,0.00,,,0.00,meteohub,2013-08-22 06:12:00,
2013-08-21 23:17:00,57.6,45.5,29.99,South,188,0.0,7.0,64,0.00,,,0.00,meteohub,2013-08-22 06:17:00,
2013-08-21 23:22:00,57.4,46.0,29.99,SSW,201,0.0,7.0,66,0.00,,,0.00,meteohub,2013-08-22 06:22:00,
2013-08-21 23:27:00,56.5,45.7,30.00,SSW,201,0.0,7.0,67,0.00,,,0.00,meteohub,2013-08-22 06:27:00,
2013-08-21 23:32:00,55.8,45.7,29.99,SSW,201,0.0,5.0,69,0.00,,,0.00,meteohub,2013-08-22 06:32:00,
2013-08-21 23:37:00,55.4,45.3,29.99,SSW,201,0.0,1.0,69,0.00,,,0.00,meteohub,2013-08-22 06:37:00,
2013-08-21 23:42:00,55.0,45.5,29.99,SSW,201,0.0,2.0,70,0.00,,,0.00,meteohub,2013-08-22 06:42:00,
2013-08-21 23:47:00,54.9,45.3,30.00,SSW,201,0.0,2.0,70,0.00,,,0.00,meteohub,2013-08-22 06:47:00,
2013-08-21 23:52:00,54.9,45.0,30.00,SSW,201,0.0,2.0,69,0.00,,,0.00,meteohub,2013-08-22 06:52:00,
2013-08-21 23:57:00,54.1,45.7,30.00,SSW,201,1.0,1.0,73,0.00,,,0.00,meteohub,2013-08-22 06:57:00,